Weather in Dassia

Greece     39°40′47″N   19°50′19″E
temp.,
°C
wind,
m/s
gust,
m/s
humid.,
%
clouds,
%
prec.,
mm/h
press.,
hPa
HPBL,
m
28 june, tue
tue2800:00+24wnw23720 0.0 101441
03:00+24sse22640 0.0 101424
06:00+23sse22700 0.0 101427
09:00+28sse22530 0.0 1014215
12:00+31ssw22430 0.0 1014756
15:00+31s12470 0.0 1014833
18:00+30wnw11530 0.0 1013386
21:00+26wnw01680 0.0 101311
29 june, wed
wed2900:00+24sse11715 0.0 101312
03:00+24ssw337398 0.0 101336
06:00+23sse22785 0.0 101332
09:00+27sse236186 0.0 1013302
12:00+31sse23485 0.0 1012686
15:00+31ssw33505 0.0 1012826
18:00+30s12520 0.0 1011450
21:00+26sse34670 0.0 1011105
30 june, thu
thu3000:00+24sse22730 0.0 101216
03:00+24se22710 0.0 101224
06:00+23sse22770 0.0 101236
09:00+27s12590 0.0 1012313
12:00+30sw12470 0.0 1012862
15:00+30wnw12510 0.0 1012929
18:00+29nw11580 0.0 1012587
21:00+25ene11710 0.1 101211
1 july, fri
fri100:00+24s11720 0.0 101320
03:00+23w11770 0.0 101316
06:00+23nnw11780 0.0 101313
09:00+28n11580 0.0 1013216
12:00+30wnw32470 0.0 1013775
15:00+30wnw44520 0.0 1013794
18:00+29wnw34530 0.0 1013523
21:00+26wnw11670 0.0 101312
2 july, sat
sat200:00+23wnw22770 0.0 101414
03:00+23ne11730 0.0 101411
06:00+23s11744 0.0 101311
09:00+28ene11561 0.0 1014178
12:00+31wnw21425 0.0 1014676
15:00+31nw33450 0.0 1014732
18:00+30nw34430 0.0 1013453
21:00+26wnw226173 0.0 101314